Starlink 1154

operational
NORAD ID: 45198 Int'l Des: 2020-012 Owner: SPXS Country: US Constellation: starlink
LEOCIRCULARSTARLINK_TYPE

关于 Starlink 1154

正在加载描述...

实时位置

正在加载3D地球...

即将过境

高度历史

Altitude vs Time

uPlot chart will show altitude changes over time

两行轨道根数

1 45198U 20012W 25351.32051632 .00007515 00000-0 52240-3 0 9994
2 45198 53.0560 36.3890 0001597 77.2466 282.8701 15.06432220322641
Epoch: Dec 17, 2025 • Age: 6 hours

当前状态

高度 552.3 km
速度 7.59 km/s
星下点 -18.37°S, 85°E
发射日期 Feb 17, 2020
运行时间 5.8 years
类型 internet

技术详情

分类 Payload
质量 260.00 kg
干质量 248.00 kg
总质量 260.00 kg
长度 0.20 m
直径 2.80 m
跨度 9.00 m
形状 Box + pan
制造商 SPXS
平台类型 Starlink
阶段状态 In Orbit
所有者/国家 SPXS/US

大型星座

Loading constellations...